Regional Weather Roundup
Issued by NWS Wakefield, VA

Home | Current Version | Previous Version | Graphics & Text | Print | Product List | Glossary On
Versions: 1 2 3 4 5 6 7 8 9 10 11 12 13 14 15 16 17 18 19 20 21 22 23 24 25 26 27 28 29 30 31 32 33 34 35 36 37 38 39 40 41 42 43 44 45 46 47 48 49 50
000
ASUS41 KAKQ 061315
RWRAKQ

REGIONAL WEATHER ROUNDUP
NATIONAL WEATHER SERVICE WAKEFIELD VA
900 AM EDT FRI MAY 06 2016

Note: "fair" indicates few or no clouds below 12,000 feet with no
significant weather and/or obstructions to visibility. * = Denotes
station may not report precipitation (e.g., rain,snow,etc.),
thunder or fog.

VAZ042-051-052>054-056-061400-
NORTHERN VIRGINIA

CITY           SKY/WX    TMP DP  RH WIND       PRES   REMARKS
WASH NATIONAL  LGT RAIN  53  50  89 N10       29.69R
DULLES         LGT RAIN  53  49  86 N8        29.69S
FORT BELVOIR   LGT RAIN  53  50  90 N3        29.68S
QUANTICO       LGT RAIN  54  50  86 N10       29.69S
FREDERICKSBRG* DRIZZLE   54  54 100 N8        29.68S
STAFFORD*      DRIZZLE   52  50  93 NW9       29.73R
WARRENTON      DRIZZLE   54  48  81 N8        29.69S
CULPEPER*      RAIN      53  52  96 N5        29.71S
MANASSAS*      LGT RAIN  54  54 100 N7        29.70R
LEESBURG*      LGT RAIN  54  54 100 N8        29.70S
WINCHESTER     LGT RAIN  52  50  93 NW7       29.72S
FRONT ROYAL*   CLOUDY    50  50 100 N3        29.71S
LURAY*         LGT RAIN  50  50 100 N8        29.72S
$$

VAZ048-049-060>072-079>083-061400-
CENTRAL AND SOUTH CENTRAL VIRGINIA

CITY           SKY/WX    TMP DP  RH WIND       PRES   REMARKS
RICHMOND       RAIN      51  50  96 N6        29.67S FOG
CHESTERFIELD*  CLOUDY    52  39  62 CALM      29.69R
PETERSBURG*    DRIZZLE   53  53 100 SW5       29.69S
HANOVER        RAIN      51  50  96 VRB6      29.69S FOG
TAPPAHANNOCK*  RAIN      52  52 100 CALM      29.67S
QUINTON*       CLOUDY    51  51  97 W7        29.67S
CHARLOTTSVILLE LGT RAIN  53  50  89 CALM      29.71R
GORDONSVILLE*  CLOUDY    51  50  96 N6        29.70S
ORANGE*        LGT RAIN  52  52 100 SW3       29.72R
LOUISA*        LGT RAIN  55  54  94 N5        29.69S
BUMPASS*       CLOUDY    51  51  97 N3        29.69S
FARMVILLE*     LGT RAIN  53  53 100 N5        29.70R
CREWE*         CLOUDY    52  52 100 NW5       29.69R
FORT PICKETT*  NOT AVBL
CHASE CITY*    CLOUDY    52  50  94 NW5       29.70S
CLARKSVILLE*   CLOUDY    52  52 100 NW5       29.70R
SOUTH HILL*    CLOUDY    51  50  97 NW3       29.74S
LAWRENCEVILLE* CLOUDY    50  49  97 CALM      29.69R
EMPORIA*       RAIN      50  50 100 CALM      29.70S
$$

VAZ088>098-061400-
SOUTHEAST VIRGINIA

CITY           SKY/WX    TMP DP  RH WIND       PRES   REMARKS
NORFOLK        HVY RAIN  52  48  86 N3        29.66S FOG
VIRGINIA BEACH LGT RAIN  56  48  74 CALM      29.66R
NORFOLK NAVAL  LGT RAIN  52  50  93 CALM      29.68R FOG
WEST POINT*    CLOUDY    51  50  97 CALM      29.68S
SALUDA*        CLOUDY    50  50 100 CALM      29.66S
NEWPORT NEWS   LGT RAIN  51  50  96 N3        29.67R FOG
LANGLEY AFB    LGT RAIN  52  50  93 W3        29.66R
FORT EUSTIS    LGT RAIN  52  52 100 W7        29.65R
WILLIAMSBURG*  FAIR      54  54 100 NW5       29.68R
HR EXEC AP*      N/A     54  50  87 W5        29.69S
FRANKLIN*      LGT RAIN  51  49  93 W5        29.69R
US460-WAKEFLD  LGT RAIN  51  50  96 W3        29.68R FOG
$$

VAZ020-022-025-037-045-061400-
WEST CENTRAL AND SOUTHWEST VIRGINIA

CITY           SKY/WX    TMP DP  RH WIND       PRES   REMARKS
STAUNTON*      CLOUDY    53  51  95 N6        29.75R
WAYNESBORO*    CLOUDY    49  48  96 NW6       29.73R
HOT SPRINGS VA CLOUDY    43  43 100 NW12G20   29.73S FOG
LYNCHBURG      LGT RAIN  51  50  96 CALM      29.74R
DANVILLE       LGT RAIN  51  50  96 NW6       29.74R
SOUTH BOSTON*  CLOUDY    54  53  95 NW7       29.72R
MARTINSVILLE   CLOUDY    53  47  78 N6        29.77R
ROANOKE        CLOUDY    56  45  66 NW14      29.76R
BLACKSBURG     CLOUDY    50  45  82 NW8       29.80S
DUBLIN*        CLOUDY    52  44  74 NW8G18    29.81R
MARION*        DRIZZLE   47  44  87 W8        29.86R
HILLSVILLE*    CLOUDY    48  44  86 NW12G18   29.78R
RICHLANDS*     HAZE      44  34  69 N8        29.86R VSB 1/4
WISE*          CLOUDY    45  43  93 NW7       29.90R
ABINGDON*      CLOUDY    49  44  81 NW5       29.88R
$$

MDZ021>025-VAZ099-100-061400-
SOUTHERN MARYLAND AND THE DELMARVA PENINSULA

CITY           SKY/WX    TMP DP  RH WIND       PRES   REMARKS
PATUXENT RIVER RAIN      50  47  89 E8        29.67R FOG
BAY BRIDGE APT NOT AVBL
LEONARDTOWN    CLOUDY    50  46  87 CALM      29.68S
DOVER          LGT RAIN  50  50 100 NE13      29.64F
GEORGETOWN     LGT RAIN  49  47  93 NE13      29.65S FOG
EASTON         RAIN     N/A N/A N/A NE5       29.70R
CAMBRIDGE        N/A     46  46 100 CALM      29.66S
SALISBURY      LGT RAIN  48  46  93 N8        29.64F FOG
OCEAN CITY     LGT RAIN  49  47  93 N16G23    29.62F
WALLOPS ISLAND CLOUDY    50  47  89 W5        29.65R
ACCOMACK*      CLOUDY   N/A N/A N/A CALM      29.66R
$$

NCZ012>017-030>032-061400-
NORTH CENTRAL AND EASTERN NORTH CAROLINA

CITY           SKY/WX    TMP DP  RH WIND       PRES   REMARKS
ROANOKE RAPIDS LGT RAIN  52  50  93 N6        29.69R
RALEIGH        LGT RAIN  52  52 100 NW5       29.72R
ELIZABETH CITY CLOUDY    55  49  80 N3        29.68R
AHOSKIE*       RAIN      51  49  95 CALM      29.69R
EDENTON*       DRIZZLE   54  54 100 CALM      29.68S
CURRITUCK*     CLOUDY    53  50  89 CALM      29.68S
KILL DEVIL HLS PTSUNNY   56  53  89 CALM      29.67R
MANTEO         CLOUDY    55  51  86 CALM      29.68R
CAPE HATTERAS  MOSUNNY   58  51  78 SW10      29.68R
TARBORO*       CLOUDY    54  52  92 NW3       29.70R
GOLDSBORO      PTSUNNY   54  54 100 NW9       29.69R
WASHINGTON     CLOUDY    53  50  92 S3        29.68R
GREENVILLE     LGT RAIN  52  52 100 N6        29.72R
NEW BERN       CLOUDY    52  50  93 SW7       29.71R FOG
WILMINGTON     CLOUDY    52  48  86 W10       29.74R
$$

VAZ048-061400-
ELSEWHERE

CITY           SKY/WX    TMP DP  RH WIND       PRES   REMARKS
HARRISBURG PA  LGT RAIN  55  47  74 CALM      29.69S
BALTIMORE      LGT RAIN  52  50  93 N6        29.67S FOG
ANNAPOLIS      LGT RAIN  52  50  93 NE6       29.67R FOG
ANDREWS AFB    LGT RAIN  51  50  94 N7        29.66S
PHILADELPHIA   HVY RAIN  50  46  86 NE9       29.68S FOG
HENDERSON NC   RAIN      52  52 100 N6        29.70
GREENSBORO     CLOUDY    53  50  89 NW8       29.74R
ROCKY MOUNT    CLOUDY    53  52  96 NW7       29.70R
$$

VAZ100-061400-
MARINE

STATION/POSITION TIME  TEMP    WIND        PRES    WAVE   SWELL
                       AIR SEA DIR/SP/G            HT/PER HT/PER
                 (UTC) (F)     (DEG/KT/KT) (MB)    (FT/S) (FT/S)
BRANDYWINE LGT   1200   49      40/ 18/ 19 1003.7F
CAPE MAY NJ      1200   47 56   30/  5/  9 1003.6F
LEWES DE         1200   49 54   40/ 17/ 19 1003.7R
15NM E FENWICK I 1250   48 51              1002.2R   8/ 7
OCEAN-CITY-INLET 1200   48 54   40/  7/ 11 1002.7R
WACHAPREAGUE VA  1200   49 56  280/  1/  2 1003.6R
THOMAS POINT MD  1300   51 58   70/  7/  9 1006.0R
GOOSES REEF MD   1300   51 58   70/ 12/ 14 1005.7R   2/ 3
COVE POINT MD    1200   50     110/ 11/ 12 1004.9R
SOLOMONS ISLAND  1200   51 60   70/  8/ 10   N/A
BISHOPS HEAD MD  1200   50 56   80/  7/  9 1003.6R
PINEY POINT MD   1200          100/  7/  9   N/A
POTOMAC MD       1300   51 59   70/ 10/ 12 1003.5R   1/ 2
CAMBRIDGE MD     1200   50 60   20/  5/  8 1003.5R
LEWISETTA VA     1200   52 60   90/ 10/ 12 1004.0R
RAPPAHANNOCK LGT 1200           60/  8/ 10 1004.6R
STINGRAY PT      1300   51 60   90/  4/  4 1004.6R   1/ 3
YORK RVR RNG VA  1200   51     170/  2/  2 1003.5R
YORKTOWN VA      1200   52 62  220/  3/  4 1003.8R
JAMESTOWN VA     1300   53 66  310/  8/ 10   N/A     0
DOMINION TERM VA 1200   52     280/  6/  9 1004.3R
KIPTOPEKE VA     1200      59   70/  2/  3   N/A
CHES BAY BRIDGE  1200   52 60  350/  4/  5 1003.8R
CAPE HENRY VA    1200   51     230/  3/  4   N/A
CHESAPEAKE LGHT  1200   51      10/  4/  4 1005.0R
WILLOUBY STN VA  1200   52      CALM  /  2 1005.2R
CAPE HENRY BUOY  1212      55                N/A     5/ 8
CAPE CHARLES BUO 1226      56                N/A     4/ 8   3/ 8
OFFSHORE WE BUOY 1221      54                N/A     7/ 9   7/ 9
64NM E OF VA BCH 1250   50 51  260/  8/ 12 1004.6R   7/ 8   7/ 8
DUCK PIER NC     1200   53 59  340/  4/  6 1003.9R
44100 DUCK FRF   1224      55                N/A     6/ 8   2/11
44056 DUCK FRF   1211      60                N/A     5/ 8   2/11
OREGON INLET NC  1200   54 59   CALM  /  2 1004.5R
HATTERAS NC      1200   58 65  160/  4/  8 1004.5R
DIAMOND SHLS NC  1250   61 76  270/ 14/ 21 1004.8R   5/ 8   5/ 8
CAPE LOOKOUT NC  1300   55     260/ 13/ 15 1005.5C1F1C2F2C3F3C4F4C5F5C6F6C7F7C8M1C9!


USA.gov is the U.S. government's official web portal to all federal, state and local government web resources and services.